Theta_e
352 352 351 350 350 349 351 353 352 353 352 351 351 351 352 352 352 351 351 351 352 352 352 352 352 351 351 350 348 349 349 350 349 348 348 349 346 342 340 343 345 346 346 346 347 346 346 345 345 345 345 345 345 345 345 343 342 340 339 339 340 341 342 342 342 341 342 341 340 339 339 339 338 338 337 339 341 343 343 342 342 342 342 341 341
352 352 352 351 351 351 352 353 353 353 352 352 351 351 353 353 352 352 352 352 352 351 351 353 353 351 350 348 348 349 349 349 349 348 348 348 347 343 341 343 344 346 346 346 347 346 346 346 346 346 347 346 346 346 346 345 344 343 342 341 341 341 341 341 341 341 341 341 340 340 340 340 340 339 340 341 342 342 342 342 342 341 342 342 341
351 351 351 351 352 352 352 352 354 352 350 352 352 351 352 353 352 352 353 353 351 350 351 353 354 352 350 349 349 349 348 347 349 349 349 349 347 344 344 345 344 345 346 346 347 346 346 347 346 347 347 346 346 346 346 346 345 344 344 343 343 343 341 340 340 341 341 341 341 340 341 341 341 341 342 342 342 342 342 342 341 341 342 342 341
350 350 350 351 351 352 352 352 353 352 350 351 351 351 351 352 352 352 352 352 351 351 352 353 354 352 350 350 350 350 348 346 348 349 348 348 346 343 344 346 346 345 346 346 346 346 347 347 346 346 347 346 347 346 346 346 346 344 345 345 344 344 344 343 341 340 341 341 341 341 341 341 341 342 342 342 341 341 342 342 342 342 342 341 341
350 350 350 351 351 351 351 351 352 351 351 351 351 351 351 351 352 351 351 351 352 352 353 353 353 352 351 351 350 350 348 346 348 348 348 349 346 344 343 346 347 346 345 346 346 346 347 347 347 346 347 348 347 346 346 346 346 345 345 345 345 344 344 345 344 342 342 342 342 342 342 342 342 343 343 343 342 342 342 342 343 343 342 341 341
351 351 351 351 351 351 351 351 351 351 351 351 351 352 351 351 352 351 350 349 351 352 353 353 352 351 350 349 349 348 347 348 348 347 349 349 345 343 343 344 346 346 345 345 345 345 346 347 347 346 347 348 347 346 347 346 346 345 345 346 346 345 344 344 344 343 343 343 343 343 343 343 343 343 343 343 343 343 342 342 343 343 342 341 341
351 351 351 351 351 352 351 350 351 351 351 351 352 352 351 351 351 350 350 350 351 351 352 353 350 349 347 345 346 345 348 349 347 347 349 347 343 342 342 343 345 345 345 346 346 344 344 345 345 345 346 347 347 346 347 347 347 346 346 346 346 345 345 344 344 344 344 343 343 343 343 343 343 343 343 343 343 343 343 343 344 343 342 342 342
352 352 351 352 352 352 351 351 351 351 352 351 353 353 352 352 351 351 351 350 351 352 350 350 348 347 343 340 341 341 346 349 348 350 348 346 345 342 341 342 343 343 345 347 347 345 342 342 343 344 345 346 346 347 347 347 347 347 347 347 346 346 345 344 344 344 344 344 344 344 343 343 344 344 344 343 344 343 343 344 343 343 342 342 342
352 352 352 352 353 352 351 350 351 351 352 352 353 354 354 354 352 351 353 353 353 351 348 348 346 344 340 338 339 340 345 349 349 349 346 345 346 344 343 343 342 342 346 348 347 345 342 340 339 340 342 344 346 346 346 347 347 346 347 347 347 346 346 345 345 344 344 344 344 344 344 343 344 344 343 343 343 343 344 344 343 343 343 342 342
352 352 352 352 352 352 351 350 351 352 352 352 353 354 355 355 354 353 354 354 354 350 346 346 344 342 341 339 339 341 344 346 347 347 347 348 347 345 345 344 344 345 347 348 347 344 343 341 339 339 340 341 344 346 345 346 347 346 346 346 346 346 347 346 346 345 345 344 344 344 344 344 344 344 343 344 344 344 343 343 343 342 343 343 342
352 352 352 352 352 352 351 351 351 352 353 353 354 354 355 355 354 355 354 351 349 345 342 343 344 342 341 340 339 341 342 343 345 346 347 349 348 348 347 346 346 347 346 348 348 346 345 345 343 343 342 339 340 344 344 346 347 346 346 346 347 347 347 347 347 347 346 345 345 344 344 344 344 344 344 344 344 343 343 343 342 342 342 341 337
352 352 352 352 352 351 351 351 352 352 352 353 355 356 355 354 354 354 354 352 346 339 338 341 344 342 341 341 340 341 342 342 345 347 349 350 350 349 349 348 348 348 348 348 348 348 348 348 347 346 346 340 338 341 343 344 345 346 346 346 346 347 347 347 347 347 347 346 346 345 345 344 344 344 344 344 343 343 342 342 342 342 340 332 325
352 352 352 352 351 351 351 351 352 352 352 353 354 355 355 354 354 353 354 353 346 339 339 343 345 344 343 344 343 343 345 344 346 348 349 350 351 350 350 349 348 348 348 348 348 348 349 349 348 347 347 344 341 341 341 342 344 344 345 345 346 346 346 346 347 347 346 346 346 346 346 345 345 344 344 344 343 342 342 341 341 339 331 319 317
351 352 352 352 352 351 352 352 352 352 352 352 353 354 355 355 356 355 355 353 346 340 340 343 345 346 345 345 345 345 346 347 347 348 348 349 349 350 350 349 348 349 349 349 348 349 349 348 347 347 347 346 345 344 342 342 343 343 343 343 343 344 345 346 346 346 346 346 346 346 346 345 345 344 344 343 342 342 342 340 335 327 319 315 315
351 351 352 353 353 352 352 352 352 353 352 352 353 354 355 355 356 357 357 353 347 341 340 342 344 346 346 345 344 344 345 347 347 346 346 347 347 347 348 348 348 348 347 348 349 349 348 347 346 344 344 346 345 344 343 341 340 339 339 340 341 342 342 344 344 345 346 346 346 346 345 345 344 344 343 342 342 341 337 331 323 317 314 315 316
352 352 352 352 352 353 353 353 352 353 353 352 352 354 355 355 355 357 357 353 348 344 341 341 342 345 346 345 344 344 343 344 345 345 345 345 345 346 347 348 348 346 345 348 348 347 347 346 344 342 341 342 343 343 343 341 339 338 338 338 339 341 341 341 341 342 345 346 346 346 345 344 343 343 343 341 339 334 326 318 316 315 315 316 318
352 352 353 352 352 353 353 353 353 353 353 352 352 354 355 355 356 357 357 353 350 347 342 340 340 341 344 344 344 343 342 340 341 345 345 343 344 345 345 347 347 344 344 346 345 344 345 344 343 342 340 339 339 340 342 341 340 339 339 339 339 340 341 341 340 340 343 345 346 345 344 343 342 341 338 333 328 322 316 315 315 315 316 319 322
353 353 353 353 352 353 353 353 353 353 353 353 352 353 354 355 355 357 358 355 352 349 346 343 339 338 339 341 341 341 341 341 342 344 346 344 344 344 344 345 345 343 342 344 345 345 344 342 340 341 341 339 337 337 338 339 340 340 339 338 336 336 338 339 339 340 341 344 345 344 344 341 335 331 325 320 318 316 315 316 316 317 320 323 325
352 353 352 353 352 353 352 352 353 352 352 352 352 353 354 355 355 356 358 356 353 351 349 346 342 340 339 340 342 341 340 342 343 344 346 346 345 343 343 344 344 344 345 345 346 347 346 343 341 340 339 339 338 335 335 336 338 340 339 335 331 330 330 330 332 335 336 339 339 339 342 338 326 319 317 315 316 317 317 318 319 322 324 325 327
352 352 352 352 352 352 352 352 352 352 350 350 352 353 353 353 354 356 356 356 354 353 351 349 346 345 343 342 343 343 341 342 344 343 344 345 345 344 344 343 343 344 345 346 345 345 346 343 343 343 339 337 337 336 335 333 333 336 339 337 333 328 324 322 322 324 326 328 328 329 333 329 319 316 318 318 319 320 320 321 323 324 325 327 328
352 352 352 352 352 352 352 352 352 351 350 350 351 352 352 353 354 355 354 355 356 354 353 351 348 346 345 344 344 344 344 345 344 344 344 344 343 343 344 343 343 344 343 343 343 343 343 341 340 342 339 336 337 336 336 334 330 331 335 337 336 331 325 319 317 318 318 319 319 320 322 320 318 319 320 321 322 322 323 323 324 325 327 328 329
351 351 352 352 352 352 352 352 352 352 351 351 351 349 350 352 352 354 353 354 356 356 355 353 350 348 348 347 347 346 345 346 345 345 345 345 343 341 342 343 343 345 343 341 341 341 342 340 338 340 339 336 336 336 336 335 332 330 329 330 332 329 324 320 317 317 317 316 316 316 317 318 320 321 322 323 323 323 324 324 325 327 328 329 329
351 352 352 352 352 352 352 352 352 352 352 351 351 350 352 352 350 352 353 353 355 355 355 355 352 350 349 349 348 346 344 344 344 345 345 345 345 342 342 343 342 344 344 340 339 338 338 338 337 338 338 336 335 336 335 335 334 332 328 325 325 324 322 320 319 317 317 316 316 316 318 320 322 323 323 323 323 324 324 325 326 327 328 329 329
352 352 353 352 352 352 352 352 352 352 352 352 351 351 353 352 349 350 352 353 355 356 355 355 353 351 351 350 349 346 344 343 342 343 344 344 346 345 343 344 343 344 345 341 339 339 337 338 338 337 337 337 337 336 336 336 335 334 331 327 324 324 323 322 321 320 318 318 317 318 320 322 323 324 324 324 324 325 325 326 327 327 328 329 329
353 353 353 353 352 351 351 351 352 352 352 352 352 351 351 350 349 349 350 350 353 356 356 356 355 352 352 351 350 348 346 345 343 342 343 344 345 345 344 345 343 344 345 343 341 341 340 339 340 339 339 338 338 337 336 336 335 334 334 331 328 327 327 327 325 323 322 321 321 321 322 324 324 325 325 325 325 326 326 327 327 328 328 329 329
353 353 353 353 352 352 351 351 351 351 351 351 351 351 351 351 351 351 350 349 352 356 357 357 355 353 352 352 350 350 348 347 346 344 343 342 343 344 345 346 344 344 346 345 343 343 342 342 340 339 339 339 338 338 337 336 335 334 334 334 333 332 331 332 331 329 326 324 324 324 324 324 325 325 326 326 326 327 327 327 328 328 329 329 329
351 352 352 352 352 351 351 351 351 350 351 351 351 351 351 352 354 354 354 353 354 358 358 357 357 354 353 352 351 351 351 349 348 346 345 343 342 343 345 346 345 345 347 348 347 344 343 343 340 337 337 338 338 337 337 336 335 334 334 335 335 334 334 334 334 333 331 328 326 326 326 327 326 326 326 326 327 327 327 328 328 328 328 328 329
350 351 351 351 351 351 351 351 351 350 350 350 351 352 351 353 356 356 356 355 355 358 358 358 358 357 356 355 354 353 352 350 350 349 348 345 342 342 344 345 346 346 346 348 348 347 344 342 341 338 336 336 337 337 336 336 335 335 335 335 335 335 334 334 334 335 334 332 330 329 329 330 330 329 328 327 327 327 328 328 328 328 328 329 328
350 351 351 351 351 351 351 351 351 350 350 350 351 352 351 352 356 358 357 355 355 357 358 358 359 358 358 356 355 355 354 353 352 352 352 349 344 342 342 343 346 346 346 347 349 349 346 343 342 341 337 336 337 336 336 336 335 335 335 335 335 335 335 335 335 335 335 335 334 332 332 332 333 332 332 331 329 329 328 328 329 330 330 330 329
351 351 351 351 351 351 351 351 351 350 350 351 351 352 352 353 357 358 357 356 356 357 358 358 359 359 358 357 356 356 355 354 354 353 354 353 348 345 342 342 343 344 346 347 347 348 346 344 342 341 338 337 338 338 338 338 337 336 335 335 335 335 335 335 335 335 335 335 335 334 334 334 334 334 334 334 333 332 331 330 331 331 332 332 331
351 351 351 351 351 351 351 351 351 350 350 350 351 352 353 355 358 358 357 357 357 357 357 358 359 358 356 356 357 356 355 355 355 355 355 355 353 349 346 343 342 343 346 347 346 347 346 344 343 342 339 338 339 339 340 340 339 338 337 336 336 336 336 335 336 336 335 335 335 335 335 335 335 335 335 335 335 334 334 333 333 333 333 333 333
351 351 351 351 352 351 351 351 351 351 350 350 351 352 353 355 358 358 358 358 357 357 357 357 358 357 354 354 355 354 355 356 356 356 356 356 355 354 351 347 343 342 345 346 347 347 346 344 342 343 342 341 340 339 339 340 340 339 339 339 338 337 337 336 336 336 336 336 335 335 335 335 335 335 335 335 335 335 336 335 334 334 334 334 334
351 351 351 351 351 351 351 351 351 350 350 349 351 352 352 354 357 358 358 359 358 357 357 357 357 357 356 355 353 352 353 355 356 356 356 356 356 355 353 350 347 345 345 346 347 347 347 345 341 340 340 339 339 338 338 339 340 340 340 340 339 339 339 338 338 338 337 337 337 336 336 335 335 335 335 335 335 336 336 336 335 335 334 334 334
351 351 351 351 350 350 350 350 350 349 349 349 350 352 352 353 356 357 358 358 359 359 358 358 358 358 358 358 356 355 354 354 355 356 356 355 355 354 353 352 351 349 347 347 347 348 348 347 345 341 339 338 338 338 338 339 340 340 340 340 340 340 340 340 340 339 340 340 339 338 338 337 336 336 336 336 335 336 336 336 336 335 335 335 334
351 351 350 351 351 350 350 350 349 349 349 348 349 351 352 352 354 355 356 356 358 358 358 358 358 357 357 358 358 358 357 356 355 355 355 355 354 354 353 353 352 351 350 349 348 348 348 349 348 347 344 343 342 340 340 340 340 340 340 340 340 340 340 340 340 340 340 340 340 340 340 339 338 337 337 336 336 336 335 336 336 336 336 335 335
353 351 351 351 351 350 350 350 349 349 349 349 349 350 350 351 352 354 354 354 356 356 356 356 357 357 358 358 358 358 358 358 356 356 356 355 355 354 354 353 353 352 352 351 349 348 348 349 349 348 348 347 345 344 343 343 342 342 341 341 341 341 341 340 340 341 341 340 340 340 340 340 340 339 338 338 337 336 336 335 335 336 336 336 335
353 353 351 351 351 350 350 350 349 349 349 350 350 350 351 351 352 353 354 354 354 354 354 354 355 356 357 358 359 358 358 358 358 358 358 357 355 354 354 354 353 352 352 351 351 349 348 349 350 349 349 348 347 346 345 345 344 344 344 343 343 343 342 342 342 341 341 341 340 341 340 340 340 339 339 338 338 337 337 336 335 335 336 336 336
354 354 353 352 352 351 350 350 350 349 349 350 350 350 352 352 352 352 353 353 353 354 354 355 355 355 355 356 358 358 358 358 359 359 358 358 357 356 355 354 353 353 352 352 351 350 349 349 350 350 350 350 349 348 347 347 346 345 345 345 345 345 345 344 344 343 343 342 342 342 341 341 340 340 339 339 338 338 338 337 336 336 336 336 337
354 354 354 354 352 351 350 350 350 350 349 350 350 350 351 353 352 352 352 354 355 355 355 356 356 357 356 357 357 358 357 357 358 358 358 358 358 357 356 355 355 354 354 353 352 351 351 351 351 351 351 351 350 349 348 347 346 345 345 345 346 346 345 345 346 345 344 343 343 343 343 342 341 340 340 339 339 338 338 338 338 337 336 336 336
354 354 354 355 354 352 352 351 351 351 351 350 351 351 351 352 353 353 353 354 356 357 356 356 357 357 357 358 359 358 357 356 355 356 357 358 358 358 357 357 356 356 355 354 354 353 353 352 352 352 351 352 351 350 349 348 346 347 346 346 346 346 345 346 346 346 344 343 343 344 344 343 342 341 341 340 339 339 338 338 337 337 337 336 336
354 354 354 355 355 355 354 354 353 353 353 353 352 352 351 352 353 354 356 355 356 357 358 358 357 357 357 358 358 358 357 355 353 353 354 356 356 357 358 358 357 356 356 355 355 355 354 354 354 353 353 352 351 350 349 349 349 349 348 348 348 347 346 346 345 345 345 344 344 344 344 344 343 343 342 341 341 341 340 338 338 337 337 337 337
354 354 354 355 355 355 355 355 355 355 355 354 352 351 351 351 353 355 357 356 355 357 358 358 358 358 358 358 358 356 355 353 352 351 352 354 354 355 356 357 357 357 357 356 356 355 355 355 355 354 353 353 352 350 350 350 350 349 348 348 348 347 347 347 347 346 346 346 346 345 346 345 344 344 344 343 343 343 342 341 340 339 338 337 337
354 354 354 355 355 355 355 356 356 356 355 353 351 350 349 349 352 355 357 357 356 356 357 358 358 358 358 359 358 357 355 353 352 352 352 352 353 354 354 355 356 356 357 356 356 357 356 356 356 355 355 354 353 351 351 351 350 349 348 348 348 347 347 348 348 348 348 347 346 345 346 346 344 344 344 343 344 343 343 344 343 343 342 339 338
355 355 355 355 355 355 355 355 356 356 355 353 350 349 349 349 350 353 356 358 358 358 358 358 358 358 359 359 359 359 358 356 355 355 354 354 354 354 354 355 355 356 356 357 357 357 357 357 357 357 356 355 354 354 353 352 351 350 349 349 348 348 348 348 348 349 348 347 346 345 346 346 345 344 344 344 344 344 344 345 345 344 343 342 340
355 355 355 355 355 355 355 356 356 356 356 354 352 350 349 349 349 351 354 357 358 359 359 359 358 359 359 359 359 359 359 358 356 356 356 356 356 356 356 356 356 356 356 356 357 357 357 357 356 356 356 356 355 355 354 353 352 352 351 350 349 349 348 348 348 348 348 347 346 345 346 346 346 345 345 345 345 345 345 345 345 344 343 343 342
355 355 355 355 356 356 355 356 356 356 356 355 353 352 350 350 350 351 352 355 357 358 358 359 359 359 359 360 359 359 359 359 359 358 358 358 358 359 359 358 358 357 357 357 357 357 356 356 356 355 356 355 355 354 354 354 353 353 352 351 350 349 349 349 349 348 348 347 345 345 346 346 346 346 346 346 346 346 345 345 345 344 343 343 343
356 356 355 355 356 356 356 356 356 356 355 354 353 353 352 351 351 352 352 354 355 357 358 359 359 359 359 359 359 359 360 360 359 359 359 359 360 360 360 359 359 359 359 358 358 358 358 357 356 355 355 355 355 354 354 353 353 352 352 351 351 349 349 349 348 348 349 349 347 346 347 347 346 347 347 347 347 346 346 346 345 344 343 343 343
356 356 356 356 356 356 356 355 356 356 355 354 353 352 351 351 352 352 353 353 354 356 357 358 358 358 358 359 359 360 360 360 359 357 356 357 359 359 359 359 359 360 360 359 359 358 358 358 357 356 356 356 355 355 354 353 352 352 351 350 349 348 348 348 348 348 349 350 349 348 348 348 347 347 347 347 347 347 346 346 345 345 344 343 343
356 356 356 356 356 356 356 356 356 356 356 354 353 352 352 352 351 352 352 352 354 355 356 357 357 358 357 357 358 359 360 360 358 356 355 356 357 358 359 359 359 359 360 360 360 359 359 358 357 357 356 356 356 355 354 353 352 351 348 346 346 347 347 347 347 348 348 349 349 348 348 348 347 348 347 346 346 346 346 345 345 345 344 344 343
356 357 356 356 357 357 356 356 356 356 356 356 354 353 352 352 352 351 351 352 354 355 356 356 356 357 356 355 355 356 358 358 356 355 355 356 357 358 359 359 359 360 360 360 359 359 359 358 357 357 357 355 353 352 352 351 351 350 347 345 345 346 346 346 347 347 347 347 347 347 347 347 346 347 347 346 346 346 345 345 345 344 345 344 343
357 357 357 357 357 357 357 357 356 356 356 356 355 354 353 352 352 351 351 353 354 355 356 356 356 356 355 354 353 353 354 354 353 353 355 355 356 358 358 359 359 359 360 360 359 358 358 357 357 356 354 352 350 350 348 346 344 344 343 341 343 345 345 345 345 345 345 344 344 346 346 346 345 346 347 347 346 345 344 344 345 345 345 345 344
Wind_Speed
3 3 3 3 2 2 2 1 2 2 2 3 3 2 3 3 3 3 3 3 3 2 2 2 2 2 2 3 4 4 5 5 4 4 4 4 3 2 1 1 1 1 0 1 2 2 1 1 0 0 0 1 2 2 2 3 3 3 3 3 3 3 3 3 2 2 2 2 2 3 3 4 4 5 5 5 6 7 7 8 9 9 9 9 9
3 3 3 2 1 1 1 1 2 2 2 3 3 2 3 3 3 4 4 3 3 2 2 2 1 2 2 3 4 4 5 6 5 4 4 4 3 2 1 1 1 1 1 1 1 1 1 1 1 1 1 1 0 1 1 1 0 1 2 2 2 2 2 2 2 2 2 2 2 2 3 4 4 5 5 6 7 8 8 9 9 9 9 9 9
3 3 2 1 0 1 2 2 2 2 2 3 3 3 3 4 4 4 5 3 2 2 2 1 1 1 2 2 3 4 6 6 4 4 3 3 3 2 1 1 0 1 1 0 1 0 1 1 2 2 2 2 2 1 1 3 2 1 1 1 1 1 2 3 2 2 2 2 3 3 3 4 4 5 5 6 7 8 8 9 9 9 9 9 9
4 2 2 1 1 2 3 2 2 2 2 3 2 3 3 4 4 4 5 3 2 2 2 1 1 1 2 2 4 4 5 6 4 3 3 3 3 2 1 1 0 0 0 1 1 1 1 1 2 2 2 2 2 2 2 4 4 3 3 3 2 1 2 3 2 2 3 3 3 3 4 4 5 5 6 7 7 8 8 8 9 9 9 9 10
4 3 2 2 2 3 3 3 3 2 3 2 2 3 3 4 4 4 5 3 3 2 2 1 1 1 2 2 3 3 5 6 4 3 3 3 3 2 1 1 0 1 1 1 1 2 2 2 2 2 2 2 2 2 2 4 4 3 4 4 4 3 3 4 4 3 3 3 4 4 4 4 5 5 6 7 7 8 9 9 8 9 9 10 10
4 4 3 3 3 4 4 4 3 3 3 3 3 4 4 5 5 5 5 3 4 3 2 2 2 2 3 3 4 4 4 4 4 3 3 3 2 2 1 0 1 1 1 2 3 3 3 4 3 3 3 3 3 3 3 3 4 3 3 4 4 5 5 5 5 5 5 5 4 5 5 5 6 6 7 7 8 9 9 9 8 9 10 10 10
6 5 4 5 5 5 5 4 4 3 3 3 4 5 5 5 6 7 6 4 5 4 2 2 2 3 5 6 6 6 4 3 4 3 2 3 2 2 1 1 1 2 2 2 3 3 4 4 4 4 4 4 4 4 3 3 3 4 4 4 4 5 6 6 7 6 6 7 6 6 7 7 7 8 8 8 8 9 9 8 8 9 9 10 10
7 6 6 6 6 6 5 5 5 4 4 3 3 5 7 7 7 7 6 5 5 3 2 3 3 5 7 7 6 5 3 3 3 2 2 3 2 1 1 1 1 1 1 2 3 3 4 4 4 4 4 4 5 5 5 4 4 4 4 4 4 6 5 6 7 7 7 7 8 8 8 8 8 8 9 9 8 8 9 8 8 9 9 10 10
7 7 7 6 6 6 6 5 5 5 5 3 3 4 6 8 8 6 5 5 3 2 2 3 4 6 6 4 3 2 1 1 1 1 3 3 2 1 1 2 2 2 2 2 3 4 4 4 4 4 4 4 4 5 5 5 4 4 4 4 5 6 6 5 6 7 7 7 8 8 8 9 9 8 9 9 9 8 9 8 9 9 9 10 10
8 7 8 7 6 5 5 5 5 5 4 3 4 3 3 5 6 4 3 3 2 2 2 3 4 5 4 5 4 3 3 2 1 2 2 3 2 2 1 2 2 2 2 2 3 4 4 5 5 4 4 4 4 4 5 5 5 5 4 5 6 6 6 6 6 7 7 7 7 7 7 8 8 8 8 8 8 8 8 9 9 9 9 10 10
8 9 9 8 6 5 5 5 5 5 4 4 4 4 4 4 3 3 3 2 3 3 3 4 3 2 3 5 5 5 3 2 1 2 2 2 2 2 2 2 2 3 3 3 3 3 3 4 4 4 4 4 4 4 4 5 5 5 5 5 5 6 6 6 6 7 7 7 7 7 7 7 7 8 8 8 8 8 8 9 8 8 9 9 9
9 10 10 10 7 5 5 6 5 4 4 5 4 4 5 5 3 3 3 3 4 3 3 3 2 1 3 4 3 4 3 2 1 2 2 2 2 1 2 2 2 3 3 3 3 3 3 3 3 3 4 5 5 4 4 4 5 5 5 6 5 6 6 6 6 6 7 7 7 7 6 6 7 7 8 8 8 8 9 9 8 8 8 8 7
10 10 11 11 9 7 7 7 6 5 5 5 5 4 6 6 4 3 3 3 4 4 1 2 2 2 2 3 3 2 1 2 2 2 2 2 2 2 2 2 2 2 3 3 3 3 4 4 4 4 4 4 5 4 4 4 5 5 5 5 6 6 6 6 6 6 6 6 6 6 6 6 6 7 7 7 8 8 8 8 8 7 5 5 4
11 11 12 12 11 9 8 9 8 7 7 6 5 5 6 6 4 2 2 2 3 3 1 2 1 1 1 1 1 1 1 2 2 1 1 1 1 2 2 2 2 2 2 3 3 3 3 4 4 4 4 4 4 5 5 4 5 6 6 5 5 6 6 6 6 6 6 6 6 6 6 6 6 6 7 7 7 7 7 7 6 4 3 3 3
13 12 12 12 13 12 11 10 10 9 8 7 6 6 6 5 4 2 2 2 3 2 3 3 2 2 2 0 1 1 1 1 1 2 1 1 2 2 2 2 2 3 4 3 4 4 4 4 4 4 4 4 5 5 5 5 5 6 6 6 6 6 6 6 7 7 7 6 6 6 7 7 7 7 7 7 7 6 6 5 3 2 2 2 3
14 13 13 13 14 14 13 12 12 11 10 9 8 7 6 6 5 4 3 3 2 2 4 4 2 2 1 1 1 1 1 1 1 2 2 2 2 2 3 3 4 5 6 5 5 5 5 6 5 5 4 4 5 6 5 5 6 6 7 6 6 7 7 7 7 7 7 7 7 7 8 8 8 8 7 7 6 5 4 3 1 1 2 2 2
15 14 13 14 15 15 15 13 12 13 12 11 10 8 7 6 6 5 4 4 2 2 5 5 3 2 2 0 0 1 2 3 3 1 2 3 3 3 4 4 5 7 8 7 7 8 8 7 6 6 6 5 6 6 6 6 6 6 7 6 6 7 7 7 7 8 8 7 7 8 8 9 9 8 7 6 4 3 2 1 0 0 1 1 2
16 15 14 15 15 15 15 14 13 13 14 14 12 10 8 7 6 5 5 5 3 3 5 6 6 4 4 4 3 2 2 3 3 1 2 3 4 5 6 6 8 9 9 9 9 9 9 9 8 8 7 7 7 7 7 7 6 6 6 6 6 7 7 7 7 8 8 7 7 8 9 9 8 6 5 4 3 2 2 2 2 1 1 1 1
18 16 15 15 16 15 15 15 14 13 13 15 14 12 10 8 7 6 6 5 4 5 5 5 7 7 7 7 6 5 4 4 3 3 3 2 3 4 6 8 9 9 10 9 8 8 8 10 10 9 9 8 7 7 7 7 8 7 7 6 6 7 7 7 7 8 8 8 8 8 8 7 6 4 3 3 3 3 3 3 3 3 3 2 2
20 18 16 16 16 16 16 15 14 13 13 14 14 13 11 9 8 7 7 6 5 6 6 5 6 6 6 7 7 7 7 5 4 4 4 3 3 3 4 6 8 8 9 9 9 8 9 10 10 10 10 9 8 8 7 7 8 8 8 8 7 7 7 7 7 7 8 8 8 7 7 7 5 4 4 4 4 5 5 5 5 4 4 3 3
22 21 19 17 17 16 16 16 15 14 13 14 14 14 13 11 9 8 8 7 5 6 7 7 7 6 5 5 6 6 6 5 5 5 5 4 4 4 3 4 5 6 7 9 9 9 10 11 10 10 11 10 9 8 8 8 8 8 8 8 8 8 7 7 7 8 8 8 8 8 7 6 6 6 6 6 6 6 6 6 6 6 5 4 4
23 22 21 20 18 17 18 17 17 15 14 13 14 15 15 13 11 9 8 7 6 6 7 8 9 8 7 6 5 5 5 5 5 5 5 4 5 6 6 5 5 5 6 8 8 9 10 10 10 10 11 11 9 9 8 9 9 8 8 8 9 9 8 8 8 8 9 8 8 8 8 7 7 7 7 7 7 7 7 7 7 6 6 5 5
24 24 23 22 21 19 18 18 18 17 16 14 14 14 14 14 13 10 9 8 7 7 8 8 9 10 10 8 7 6 5 5 5 5 5 5 5 7 8 7 7 7 7 9 10 10 11 11 11 11 10 10 10 10 9 9 9 8 8 8 8 8 8 8 8 8 9 9 9 9 9 8 9 9 9 9 9 9 9 8 8 8 7 7 7
25 25 24 24 23 21 20 20 20 19 18 16 14 13 13 14 14 12 10 9 8 8 8 9 10 11 10 9 9 8 7 7 7 5 6 7 6 8 8 7 7 8 8 11 12 11 12 12 12 12 12 12 11 11 11 10 10 9 8 9 9 9 9 9 9 9 9 10 10 10 11 10 11 11 11 11 10 10 10 10 10 9 9 9 9
26 27 26 24 24 23 21 21 20 19 18 17 15 14 13 14 15 14 13 11 10 9 9 10 10 11 10 9 9 8 8 7 8 8 7 7 7 8 9 7 8 9 8 10 10 10 11 12 12 12 12 12 13 12 12 12 12 10 10 10 10 10 10 10 10 10 10 11 11 12 12 12 12 12 13 13 12 12 12 12 12 12 12 12 12
28 28 28 25 25 25 23 22 21 20 18 18 17 15 13 13 13 13 14 13 11 10 10 10 11 12 11 11 10 9 9 8 8 9 8 8 8 8 8 7 9 10 8 7 8 8 9 10 12 12 12 12 12 13 13 13 13 12 12 12 13 12 12 12 12 12 12 13 13 13 14 14 14 14 14 15 14 14 14 14 14 14 14 14 14
30 30 29 27 26 25 24 23 22 21 19 18 17 16 15 12 11 11 12 12 10 10 10 10 12 13 13 13 13 10 10 11 9 9 9 9 9 9 7 6 7 8 7 6 7 8 9 10 11 9 8 9 10 12 12 13 15 14 13 15 16 15 14 14 14 14 14 14 15 15 16 16 16 16 16 17 17 17 17 17 17 17 17 16 16
30 30 29 27 26 26 25 24 23 22 20 19 19 17 16 13 10 9 11 11 11 10 11 11 11 13 13 14 14 13 12 13 12 11 11 11 11 10 8 6 6 6 6 6 6 7 6 6 6 5 3 3 5 8 10 12 14 15 16 17 19 19 18 17 17 17 17 16 17 17 18 18 18 18 19 19 19 20 20 20 20 20 19 19 18
30 29 28 28 27 26 25 25 24 23 21 21 20 19 18 15 11 9 11 12 11 11 11 11 11 12 12 13 14 14 14 14 14 13 13 13 13 12 11 9 7 6 5 5 6 6 5 5 5 5 3 2 3 5 7 10 11 14 17 18 20 21 21 20 20 20 21 20 20 20 20 20 20 20 20 21 22 22 22 22 22 22 22 21 21
30 29 28 27 27 26 26 25 25 24 23 22 21 20 18 15 11 10 11 11 11 11 11 11 11 11 13 14 14 15 15 15 15 14 14 14 13 14 13 12 11 9 7 6 7 8 8 7 6 5 5 6 10 13 14 14 13 13 16 18 20 21 21 22 22 23 24 24 24 24 24 24 23 23 23 23 24 24 24 24 24 24 24 23 23
30 30 28 27 27 26 26 26 26 26 24 23 22 20 18 14 11 11 11 10 11 12 12 12 11 11 14 15 16 16 16 16 15 14 15 15 14 15 15 15 14 13 10 8 8 9 8 7 6 8 12 17 20 22 22 21 19 16 16 18 20 20 21 23 24 24 26 26 27 27 27 27 27 27 27 26 26 26 26 26 26 26 26 25 25
31 30 29 28 27 27 26 25 25 25 25 25 24 22 19 15 11 12 12 11 12 14 14 14 12 12 15 17 18 18 17 17 16 16 16 16 16 16 15 16 16 15 13 10 10 13 13 13 14 14 16 20 24 25 25 25 24 21 19 20 21 21 22 24 25 25 26 27 28 29 30 30 31 31 30 30 29 29 29 29 29 28 28 28 27
31 30 30 29 28 27 26 25 24 25 25 25 25 23 21 17 13 12 12 12 13 14 14 15 14 13 13 15 18 19 19 19 18 17 17 17 17 17 17 17 16 15 14 12 12 16 18 17 20 21 21 23 25 27 27 26 25 24 22 22 22 23 24 26 26 27 27 27 28 29 30 31 32 33 33 33 33 32 31 31 31 31 30 30 29
32 31 30 30 29 28 27 26 26 25 25 25 25 24 23 21 17 14 13 13 13 14 15 15 15 14 13 13 15 17 19 20 20 18 16 16 16 15 16 16 14 14 15 15 13 14 18 18 18 22 25 26 27 27 27 26 25 24 24 25 26 26 27 28 29 30 30 29 29 29 30 31 32 34 34 35 36 36 35 34 33 33 33 32 32
30 32 31 30 30 29 28 27 27 26 25 25 25 24 24 24 22 20 18 17 16 16 17 17 17 16 15 14 15 14 14 18 20 19 17 17 16 16 16 16 15 14 15 17 16 15 18 20 18 18 19 21 25 27 27 27 27 26 26 28 28 29 30 31 32 33 34 33 32 32 32 32 33 34 35 36 37 38 39 38 37 36 35 35 34
27 31 32 30 30 29 28 28 28 28 27 26 25 25 25 25 24 23 22 22 20 20 21 21 19 18 17 17 16 14 12 15 18 18 16 17 17 18 18 18 18 17 16 19 21 19 19 20 21 21 20 22 26 27 26 27 28 28 28 29 30 31 32 33 34 36 36 35 34 34 34 34 35 36 36 37 38 39 40 41 41 40 38 37 37
26 29 31 31 30 30 29 29 29 29 28 28 27 26 25 25 25 24 23 24 24 24 25 24 23 21 21 20 18 16 14 15 16 15 14 14 16 18 19 19 19 18 18 20 23 23 21 21 24 24 23 23 26 27 28 27 26 26 27 30 32 32 34 34 34 36 36 35 34 34 34 35 36 37 38 39 39 40 40 41 43 43 42 40 39
26 26 28 30 31 31 31 30 30 30 29 29 29 28 26 25 25 25 24 25 26 26 26 25 24 24 24 23 20 18 18 17 16 15 14 13 14 16 19 20 18 17 17 19 22 23 21 21 23 23 21 20 20 24 28 28 25 24 25 29 31 32 34 35 35 36 35 34 33 33 34 34 35 36 37 39 40 41 41 42 43 44 44 43 41
27 26 26 27 30 32 32 31 31 31 30 30 30 29 28 27 27 27 26 26 26 26 27 25 23 23 23 23 21 20 21 21 19 18 16 15 14 16 17 18 17 15 16 17 19 20 19 19 19 19 19 18 17 21 26 27 26 26 27 28 29 32 34 35 36 35 32 32 34 35 36 35 35 36 36 37 39 39 41 42 43 44 45 46 44
28 27 25 25 28 30 31 31 30 30 30 31 30 30 30 29 28 28 27 27 25 25 25 25 24 23 23 21 20 20 21 24 23 21 19 17 15 14 14 14 14 15 16 16 17 18 18 17 18 18 18 17 18 22 26 25 24 27 30 28 28 33 35 35 36 33 30 31 34 36 36 35 36 37 38 39 39 39 40 41 42 44 45 46 46
29 27 26 24 25 26 27 28 29 28 29 30 31 31 30 30 29 27 26 26 25 24 24 24 23 24 24 22 20 20 21 24 25 24 23 21 18 17 16 14 13 15 17 18 18 19 19 18 17 17 18 18 19 21 25 26 26 31 32 25 23 28 32 34 37 35 31 30 32 34 34 32 33 36 37 39 39 37 38 40 41 42 44 45 46
30 27 26 25 23 24 25 26 27 27 28 31 32 32 31 30 29 26 24 26 26 25 24 23 23 24 23 22 22 23 24 26 27 26 25 24 23 23 22 19 17 17 18 19 19 20 21 20 18 16 17 19 20 21 26 30 32 32 26 16 16 26 30 31 34 33 27 25 28 33 35 33 31 33 35 38 39 36 36 39 40 40 41 43 44
30 28 27 26 25 24 23 24 25 25 29 32 34 34 33 32 29 26 23 24 25 26 25 24 24 23 22 22 22 23 25 27 27 26 25 25 24 24 25 24 22 21 21 21 22 23 23 22 21 19 19 20 23 27 30 30 29 27 20 14 18 28 29 23 23 23 20 19 22 28 37 39 33 32 37 39 39 38 38 40 41 41 40 41 42
30 28 27 27 27 26 24 23 24 25 28 32 34 34 34 33 32 28 24 21 21 23 23 23 24 23 22 21 20 20 21 23 24 23 22 23 23 24 25 25 25 24 24 24 25 25 25 24 24 25 24 25 28 32 30 24 23 23 19 14 19 29 32 24 22 25 25 22 19 22 34 40 32 29 38 43 41 41 43 44 44 42 41 40 41
30 29 28 27 27 27 25 25 25 25 26 29 33 35 34 33 32 31 28 23 21 22 22 23 23 23 22 21 20 20 20 21 22 22 22 22 22 24 24 24 25 25 25 26 26 27 29 30 30 31 31 30 30 26 20 19 22 24 21 15 16 24 30 29 29 33 33 28 23 22 30 37 29 24 35 46 45 44 47 48 46 45 43 42 42
28 28 28 27 27 28 27 27 27 26 26 29 32 33 34 33 32 31 30 27 24 23 23 23 23 24 23 22 22 22 21 19 19 18 20 20 19 19 20 21 22 21 22 24 25 27 30 33 35 37 36 35 34 26 21 23 27 30 30 26 22 24 30 35 38 40 38 33 28 26 30 35 29 23 30 40 41 39 44 49 46 45 45 44 43
27 28 29 28 28 28 28 28 27 26 28 30 32 33 33 33 31 31 31 30 28 26 25 25 25 25 25 24 24 24 22 20 19 18 19 18 16 16 18 19 20 18 18 22 24 25 28 31 34 36 37 37 37 34 31 30 29 30 33 33 29 27 31 37 40 43 45 37 24 21 28 32 28 25 30 35 32 31 37 44 46 44 44 45 45
25 26 27 28 27 27 28 28 26 26 28 30 33 34 34 32 31 30 31 32 31 29 27 27 27 27 27 26 25 25 24 22 22 24 24 22 18 16 18 20 20 18 18 21 24 26 29 31 33 35 36 37 37 36 35 32 29 29 31 31 29 27 28 31 31 34 44 45 29 19 27 32 27 27 32 32 30 29 33 37 40 42 44 45 45
23 23 25 26 26 26 27 27 26 27 28 30 33 34 33 32 31 31 32 32 32 30 29 29 29 28 29 29 28 26 24 23 24 26 26 24 20 18 18 20 21 20 18 20 24 28 30 33 33 33 35 36 36 36 35 33 31 32 31 29 28 27 26 25 24 24 33 42 36 24 26 33 30 29 32 32 31 32 32 32 33 35 40 44 44
25 24 24 24 24 25 26 26 27 27 28 29 32 34 33 32 31 31 32 32 30 29 29 30 31 31 31 32 30 29 27 26 27 27 25 23 20 17 17 20 22 22 19 18 22 28 32 34 33 32 34 35 34 33 31 29 28 29 29 30 29 25 24 25 26 26 28 35 34 26 26 32 32 29 31 31 31 33 33 33 32 31 35 40 42
25 24 23 23 23 24 25 26 28 29 28 27 30 32 33 33 32 32 32 30 27 27 27 27 29 30 32 33 33 32 31 30 29 28 26 24 20 17 16 18 21 24 22 19 22 29 32 32 31 31 32 31 29 29 27 25 25 25 26 29 27 22 24 28 29 25 22 24 25 21 22 28 28 27 28 25 22 25 29 30 31 31 33 36 38
Wind_Direction
135 123 116 108 103 100 72 35 22 10 7 19 24 24 27 23 11 16 20 17 30 48 42 22 353 347 349 354 360 8 16 23 27 34 40 41 63 87 76 59 51 111 167 208 187 208 212 203 302 62 48 60 58 52 54 56 60 56 46 44 50 55 58 52 44 39 39 32 26 25 20 8 3 2 3 2 358 353 352 352 352 351 353 353 352
154 137 128 118 119 122 23 354 352 357 3 9 10 18 23 11 11 19 15 21 25 32 50 28 343 328 331 339 349 357 1 8 14 22 30 31 59 107 119 65 10 48 33 235 160 177 201 211 233 239 262 300 351 23 5 314 57 64 37 24 16 18 19 21 15 4 2 350 344 350 353 350 348 351 352 349 346 343 344 348 350 351 351 350 350
180 162 148 151 222 305 324 331 344 345 356 6 360 4 14 2 12 21 12 18 11 32 74 26 340 318 317 321 334 348 355 7 17 22 29 22 42 102 130 100 24 44 37 311 82 143 206 218 237 246 251 260 265 262 279 283 287 278 267 280 301 339 341 349 350 339 336 329 326 327 330 337 337 339 339 337 337 338 340 344 347 347 347 346 347
194 192 187 214 278 302 314 320 333 334 343 3 359 348 349 339 352 9 358 12 30 59 83 22 349 317 309 312 323 341 354 6 23 30 26 16 25 70 130 130 180 250 337 325 360 310 275 272 271 271 262 254 259 260 276 284 286 276 265 261 261 272 299 312 312 311 315 312 314 315 317 322 324 327 327 327 329 333 336 338 341 342 342 343 343
208 218 228 253 278 291 305 314 318 326 326 335 353 337 325 323 332 350 343 10 60 68 68 44 12 337 321 315 316 326 345 1 19 29 28 19 18 35 105 143 205 224 235 263 281 291 289 292 293 280 272 266 269 271 280 290 290 280 275 272 272 270 269 276 279 279 281 289 297 300 302 307 310 314 315 319 323 329 332 333 336 336 337 338 338
223 233 246 267 282 292 300 307 306 313 314 317 341 326 320 329 335 357 2 39 69 61 56 46 16 357 331 319 313 310 326 352 6 20 35 22 11 19 33 144 321 314 307 289 284 286 285 292 297 288 282 280 285 286 272 279 285 276 271 272 275 274 270 272 276 276 272 273 278 284 288 293 297 303 307 312 319 326 328 327 329 331 334 337 338
231 241 253 271 284 294 295 300 299 299 304 312 334 323 328 350 359 11 17 53 67 46 28 19 7 347 321 312 302 294 297 322 343 8 34 17 8 7 6 335 325 331 332 316 301 294 288 294 302 301 294 278 276 283 277 275 281 276 271 274 279 279 273 272 280 284 281 278 279 283 288 292 295 299 302 307 315 322 324 322 324 329 334 336 336
235 245 259 272 284 293 292 292 292 287 290 304 335 330 335 353 9 14 12 37 51 24 350 352 346 330 322 317 303 290 282 302 335 13 20 9 16 349 341 332 311 320 326 317 307 299 292 292 295 299 300 284 273 277 282 286 286 279 279 281 283 286 281 274 280 287 289 289 288 289 293 296 297 300 305 310 316 320 319 320 323 329 333 333 335
237 249 261 270 282 293 292 286 282 278 282 297 326 332 337 346 357 3 359 10 17 345 324 330 322 324 337 346 335 326 317 328 347 8 353 356 10 343 316 313 312 318 318 311 304 300 300 298 294 290 290 287 281 279 280 286 288 285 289 290 286 288 289 283 279 284 291 294 293 294 297 298 300 304 310 313 314 316 317 321 325 331 332 331 333
238 250 258 263 278 293 290 279 274 273 278 293 309 316 324 336 346 345 341 337 314 303 290 287 296 318 9 32 32 43 48 40 13 349 354 354 355 338 309 293 301 299 292 298 298 301 308 310 310 305 293 283 282 285 284 283 288 294 298 292 286 286 290 292 288 289 295 296 296 298 298 298 301 304 308 311 312 315 319 324 328 330 330 329 330
239 250 255 256 269 288 284 269 265 273 282 291 298 298 298 312 326 323 335 321 301 308 268 254 273 317 50 45 34 38 38 37 8 337 344 343 336 325 303 287 282 285 287 289 288 298 312 317 322 320 308 295 282 284 287 284 285 291 296 293 290 289 290 293 292 295 300 300 302 303 301 300 300 302 306 311 312 314 319 324 327 327 327 329 329
240 249 251 250 259 276 277 262 256 268 281 286 292 292 296 313 327 325 336 319 312 325 272 230 205 111 78 62 39 33 24 5 330 326 332 332 329 311 288 277 274 272 276 278 276 288 305 313 319 319 315 310 299 287 281 283 285 288 292 294 296 293 292 294 291 293 299 303 305 304 302 301 302 304 306 309 310 314 319 322 323 324 328 333 335
243 248 248 247 252 264 269 259 254 261 273 282 291 295 295 311 331 339 332 307 312 329 281 183 161 147 102 78 45 22 355 329 304 304 320 321 314 298 275 263 271 274 272 276 277 282 297 308 316 318 318 319 316 303 291 288 287 287 286 288 290 289 292 295 291 294 298 300 301 300 299 298 301 306 307 308 312 316 315 314 320 326 333 346 2
246 249 247 247 250 258 263 260 258 260 271 280 285 291 292 303 315 321 321 295 301 309 218 162 164 146 111 85 36 356 279 290 291 284 300 304 298 284 273 271 271 281 283 288 289 288 297 304 312 317 312 312 315 306 299 293 282 281 280 278 279 277 278 282 284 289 295 296 294 292 291 294 298 301 305 308 310 312 308 309 322 336 355 24 43
246 249 249 248 250 256 259 259 259 260 267 274 277 281 282 289 287 271 288 277 278 279 195 171 151 121 105 360 4 344 278 244 263 274 280 279 273 267 273 280 278 283 290 299 301 298 297 299 306 314 309 301 302 302 299 291 279 275 272 268 268 267 264 264 268 275 284 288 283 280 281 288 296 299 301 303 301 299 302 310 324 358 33 49 60
243 248 251 250 252 255 257 258 258 257 259 265 268 270 273 284 282 262 264 267 259 226 196 184 163 152 149 42 46 310 317 49 322 267 257 261 256 260 273 284 288 290 294 294 294 295 297 299 305 313 311 300 294 296 297 292 284 277 272 269 267 270 268 264 263 264 270 276 277 278 280 287 296 297 293 288 287 289 298 312 328 46 52 61 70
239 247 252 253 254 256 257 257 257 256 254 257 261 261 262 272 279 266 258 272 274 217 205 198 186 174 180 180 288 304 4 8 335 277 255 265 258 263 276 285 288 290 292 291 293 297 299 303 308 314 315 311 300 291 288 285 282 278 276 275 273 277 279 274 270 265 265 270 277 280 283 286 289 288 282 276 274 274 275 277 276 37 77 91 86
235 244 251 253 255 256 257 256 258 258 253 255 259 257 255 259 272 268 253 268 273 236 219 212 220 227 232 248 269 303 342 341 327 323 283 265 263 270 275 279 283 285 287 287 292 295 296 302 308 312 313 313 308 298 287 277 273 272 271 270 273 277 280 279 277 271 268 266 266 269 275 280 281 276 272 267 261 254 245 237 234 224 202 173 141
233 239 246 251 254 256 256 256 259 259 253 253 254 252 250 252 263 266 257 265 260 243 235 221 231 244 247 249 251 260 283 301 310 321 323 284 264 275 275 275 276 278 279 279 281 282 287 295 300 304 306 306 308 307 301 284 271 267 267 266 269 274 276 279 279 275 272 268 261 258 260 266 270 265 258 253 247 242 237 232 227 221 214 209 204
232 236 241 246 252 254 254 255 258 258 253 250 249 245 246 251 257 261 262 264 252 243 244 235 236 243 246 250 247 252 268 285 290 294 305 302 289 280 273 275 274 272 273 276 277 275 278 285 286 288 292 296 300 305 311 304 285 271 268 266 265 268 272 276 278 275 270 268 266 262 256 256 260 257 248 245 244 241 238 232 229 227 223 226 236
233 235 238 242 247 251 252 252 255 257 254 248 243 241 243 249 251 255 263 264 253 245 244 243 243 244 247 248 247 252 263 274 274 271 278 286 293 302 299 295 286 278 281 283 283 281 279 281 280 278 282 288 293 297 303 308 300 279 269 267 266 266 269 270 273 273 269 266 265 265 261 254 253 253 249 246 246 245 241 236 234 235 234 238 250
235 235 237 239 242 247 249 250 251 255 255 248 244 242 243 247 250 252 260 263 256 249 248 247 246 244 248 250 244 247 257 265 270 269 271 266 275 296 304 306 306 301 298 293 286 281 277 277 278 275 276 280 284 289 293 299 303 294 281 272 267 267 268 267 268 268 267 266 261 261 261 256 253 253 252 250 249 249 246 243 242 241 243 249 261
236 236 237 238 241 244 247 249 250 252 254 253 250 245 241 245 250 250 253 258 256 252 252 251 251 249 247 251 250 249 252 261 275 282 285 279 276 292 300 306 307 298 295 298 294 287 281 276 273 271 270 274 276 279 282 287 293 295 291 281 272 270 268 266 266 264 263 263 260 258 257 256 256 256 256 255 252 251 250 249 248 247 251 259 269
235 236 237 238 240 243 246 248 248 250 252 254 255 250 242 243 249 250 250 254 252 250 252 250 253 252 247 248 251 253 251 255 268 274 277 282 284 292 299 303 300 290 289 297 297 289 281 275 272 272 270 267 266 266 269 273 276 280 283 281 275 273 271 267 265 263 261 259 258 257 257 256 257 257 258 258 255 254 252 253 254 255 259 265 272
232 234 237 238 240 242 245 247 248 250 251 252 256 257 252 247 247 250 251 254 250 247 251 251 254 255 249 246 246 251 252 253 263 268 269 273 271 280 291 294 290 289 289 291 292 290 286 282 279 279 275 266 260 257 257 259 262 264 267 271 270 269 271 272 269 265 261 258 256 256 257 257 257 257 257 256 255 254 254 255 257 259 263 267 273
232 234 237 239 240 241 244 247 249 251 252 252 254 257 259 253 248 250 252 255 252 245 248 250 253 257 255 252 251 251 257 259 262 264 266 268 266 271 285 289 287 287 283 278 281 287 291 295 294 288 280 269 259 254 252 253 257 257 257 262 265 263 264 266 268 266 262 258 256 255 256 256 256 256 255 255 254 253 254 255 257 259 262 265 270
235 237 240 241 242 242 244 247 249 251 252 253 252 255 259 254 246 246 247 249 246 241 245 246 250 256 257 258 258 254 259 265 265 265 266 268 267 268 276 288 291 290 286 278 272 273 276 288 299 296 281 269 260 256 255 254 256 258 257 258 261 261 260 260 261 263 261 259 257 255 255 256 255 254 253 253 253 252 253 253 255 257 259 261 265
237 240 242 243 243 243 244 247 250 252 253 254 252 252 256 254 243 240 240 241 240 238 242 244 248 254 257 260 261 258 259 263 265 268 271 271 268 263 258 268 285 296 299 291 281 280 269 268 294 314 301 279 269 266 264 261 261 262 260 259 260 261 261 260 260 260 260 259 257 255 255 255 255 254 253 253 252 252 253 253 254 255 257 259 261
237 240 242 243 243 243 244 247 250 253 255 256 254 252 253 252 243 239 239 238 239 240 241 244 247 251 256 260 263 262 262 265 267 270 273 274 272 266 258 255 260 277 296 296 291 291 273 258 279 295 298 330 320 299 288 280 274 269 265 263 263 264 265 264 263 262 262 260 259 257 256 255 255 255 254 253 253 253 253 254 254 254 255 257 258
236 238 240 242 243 244 245 247 249 252 254 256 256 253 251 248 241 240 242 237 238 240 241 246 247 249 255 260 264 265 265 267 268 269 273 275 273 269 264 257 251 253 266 283 292 287 277 274 273 270 279 300 307 307 304 300 294 283 274 270 268 269 270 268 266 264 263 262 261 259 258 256 256 256 255 255 254 254 254 254 254 254 254 255 256
234 237 239 240 242 244 245 247 247 250 252 254 255 252 247 243 238 238 240 235 236 240 241 244 245 249 257 261 264 266 266 268 267 267 272 276 274 271 267 262 256 251 251 262 280 278 272 276 276 276 287 295 300 304 304 303 302 295 286 281 279 278 274 270 268 265 263 263 262 261 260 258 257 256 256 255 255 255 255 255 255 254 255 255 255
233 236 238 239 241 244 245 246 245 247 249 250 252 251 247 242 236 237 239 235 236 240 242 243 244 249 258 262 264 266 267 269 269 269 272 275 275 272 269 266 261 256 250 246 261 271 270 274 279 283 287 293 298 300 300 301 302 300 295 290 288 285 279 275 274 271 268 266 264 262 261 260 258 257 256 256 255 256 256 255 255 255 255 255 255
232 234 236 239 242 244 245 244 245 245 247 248 249 249 248 243 237 237 239 237 240 243 245 246 245 246 254 258 262 266 268 268 269 269 270 273 275 272 270 267 260 257 254 244 254 274 278 278 283 286 288 291 295 297 298 299 300 301 299 294 291 287 283 281 281 279 276 273 270 268 266 263 261 259 257 256 255 255 255 255 254 254 254 254 254
232 233 236 239 241 244 244 244 246 246 248 249 248 248 248 246 243 239 238 239 241 243 245 246 245 245 249 252 258 264 266 267 268 265 264 267 267 266 266 266 261 259 262 258 255 271 281 283 285 288 289 291 293 294 296 296 296 296 295 293 291 288 285 284 282 282 282 280 278 276 273 270 266 263 260 258 256 255 254 253 253 252 251 251 250
231 234 236 238 240 243 243 244 246 247 248 249 247 248 249 249 247 244 245 245 242 244 247 248 250 250 249 249 253 258 260 265 268 266 263 263 263 263 265 265 264 262 265 268 264 262 274 282 282 282 284 286 288 291 294 294 294 292 291 290 290 287 286 285 282 282 283 282 281 280 278 276 273 269 265 260 257 255 253 252 252 251 250 249 248
227 234 236 236 238 241 241 243 246 247 248 248 248 248 250 251 250 249 250 251 249 251 254 255 256 255 252 252 255 256 253 259 267 267 263 263 266 269 270 270 271 268 266 269 268 263 266 274 277 276 278 281 286 290 292 292 294 294 292 292 290 287 286 286 283 282 284 283 282 281 279 277 276 274 271 266 261 257 254 252 251 250 250 248 248
223 230 234 234 235 238 240 241 244 246 247 247 247 249 250 251 252 251 252 254 255 257 259 261 261 260 259 258 257 256 253 254 262 263 259 261 266 271 274 273 273 271 268 269 270 266 260 264 273 277 279 282 287 291 293 293 293 293 293 294 293 290 289 288 284 282 285 286 285 283 281 279 276 274 273 270 267 263 258 254 252 250 249 248 247
220 224 229 232 233 236 239 240 242 245 247 247 248 250 249 250 253 254 253 255 257 259 260 261 262 263 264 263 260 258 257 255 256 260 261 259 259 266 273 275 273 271 268 267 268 265 258 260 271 278 282 284 285 289 293 294 291 288 289 291 290 289 288 289 286 284 285 287 288 287 284 280 277 275 273 272 270 268 265 261 256 253 250 249 248
219 221 223 227 232 236 238 239 240 243 245 246 247 249 249 248 251 253 253 254 255 258 259 260 260 261 263 263 261 260 261 262 261 262 264 261 258 262 269 273 271 267 265 263 261 260 259 261 270 277 282 285 283 285 291 293 290 288 286 284 284 285 287 287 287 286 286 288 290 289 286 283 280 278 276 274 273 272 270 267 263 258 253 250 249
220 221 220 222 228 233 235 236 238 240 242 244 245 247 248 247 248 250 252 252 251 253 257 259 259 259 260 260 258 257 262 267 269 268 266 263 261 263 265 266 265 263 263 265 265 266 267 269 274 278 280 281 280 283 290 291 286 285 285 280 279 285 289 288 287 288 289 289 289 289 287 286 285 284 281 279 277 275 273 270 267 263 259 254 250
220 221 221 220 222 227 229 232 234 235 237 241 242 243 244 245 246 246 247 249 250 250 253 256 258 259 260 258 255 255 259 266 273 275 274 271 268 267 265 265 267 268 269 269 271 276 278 277 278 279 280 281 276 277 283 283 281 284 286 282 281 288 293 291 288 290 292 291 291 291 289 287 287 288 285 281 281 280 277 274 270 266 263 258 253
221 220 220 219 220 222 224 226 229 231 234 239 242 243 243 243 243 242 243 247 250 250 251 253 255 258 259 258 258 260 265 270 275 277 278 278 276 274 271 267 265 268 273 276 279 281 282 282 282 280 278 278 272 271 276 280 282 285 288 292 297 296 294 291 290 292 292 293 291 291 291 288 285 287 286 282 282 283 280 277 275 271 267 263 258
221 220 219 219 220 222 223 224 225 227 233 240 243 245 245 244 242 240 240 245 248 250 250 251 254 256 257 257 260 263 268 272 275 277 279 280 279 279 279 276 270 266 268 273 277 281 281 282 284 282 272 267 267 271 275 279 283 286 291 300 299 293 290 288 291 294 296 295 289 288 292 292 286 284 285 282 280 279 278 277 276 275 273 269 265
220 219 219 220 222 224 223 224 225 226 232 241 245 246 247 246 244 240 239 240 243 246 247 247 251 253 254 255 256 258 261 266 270 274 277 280 282 282 283 282 278 273 269 268 269 272 273 274 277 276 267 261 266 271 274 279 288 293 290 284 284 287 286 283 283 287 291 295 292 285 288 290 286 280 282 282 279 277 278 277 275 274 272 270 268
219 219 221 221 223 224 223 224 226 227 232 240 245 247 247 247 246 243 240 239 240 243 244 246 248 250 251 253 254 254 257 261 265 267 269 274 280 283 284 283 280 277 274 271 269 268 268 265 264 265 266 266 268 271 275 280 288 291 286 276 277 285 285 280 279 283 286 290 289 282 280 283 281 271 273 279 280 276 277 278 276 273 271 268 266
217 219 220 220 222 224 224 226 228 230 233 238 244 247 247 246 246 244 242 240 241 243 245 246 248 249 250 251 254 256 256 257 259 261 263 266 269 273 279 280 278 276 275 274 272 268 267 265 262 263 269 273 271 272 277 279 280 282 282 281 281 282 283 283 283 284 286 284 278 274 275 278 276 265 265 274 277 274 277 280 278 274 272 269 266
217 219 220 221 223 225 226 227 229 232 236 239 242 245 247 246 245 244 244 242 242 244 246 247 248 250 251 252 254 257 256 255 255 254 257 259 259 264 271 273 273 271 268 270 273 272 272 274 273 272 276 280 280 280 281 279 279 281 282 283 284 283 282 285 287 289 291 290 277 263 272 277 277 271 268 271 272 269 273 280 280 278 275 271 267
218 219 221 222 223 225 226 227 229 233 237 239 242 244 246 246 243 241 242 243 243 244 246 247 249 251 253 253 253 256 257 257 258 261 264 262 257 258 267 271 272 271 266 268 275 279 280 284 285 284 286 290 293 293 290 284 280 281 281 282 282 279 277 280 283 286 290 292 286 273 278 284 284 282 279 278 276 272 270 273 277 278 277 273 269
216 218 220 222 223 225 227 226 227 232 236 240 242 243 245 244 240 239 240 241 242 243 245 248 250 252 254 254 254 256 257 257 260 265 268 265 255 251 258 266 271 274 274 273 275 280 283 286 288 289 293 297 299 299 297 293 288 285 280 275 275 275 274 274 274 275 281 286 287 286 284 285 286 287 286 285 282 277 273 270 270 272 274 273 269
217 219 221 223 224 225 227 226 227 231 236 240 243 244 244 242 239 238 239 239 240 242 245 249 251 253 256 258 257 256 257 260 264 267 267 263 255 247 250 262 270 272 272 271 273 277 282 285 288 291 293 295 297 298 299 298 295 289 280 274 276 277 272 271 273 277 280 281 284 285 280 280 284 284 284 287 283 276 272 270 267 266 266 267 267
217 220 221 222 224 225 226 228 230 233 236 239 243 244 244 242 239 238 237 237 237 239 243 247 251 253 257 260 261 260 261 263 267 268 267 262 254 246 246 256 264 267 267 266 267 273 278 281 285 289 291 294 296 297 297 298 297 294 288 285 284 276 271 274 277 281 283 282 284 283 275 278 284 282 282 287 285 278 275 271 268 264 259 259 263